Theta_e
299 289 286 287 288 292 295 295 295 296 296 295 294 293 291 291 292 295 296 298 299 296 295 294 294 294 295 296 298 300 301 302 304 304 306 313 315 316 316 315 317 319 320 323 324 325 326 327 329 329 329 328 328 329 331 331 331 331 330 330 329 332 333 331 328 327 327 326 326 327 326 326 327 329 329 329 329 330 332 333 334 334 334 334 334 334
298 288 288 292 294 295 297 298 297 297 297 295 293 292 291 293 291 296 297 299 299 295 292 294 294 294 295 297 298 301 301 302 302 302 309 315 317 317 315 316 318 319 321 322 322 323 325 327 328 329 328 328 326 328 330 330 331 331 331 331 332 333 332 331 330 330 329 329 329 328 326 326 326 326 326 325 326 329 332 332 332 333 333 333 333 333
288 287 292 296 298 299 298 299 299 297 295 296 292 291 291 292 296 298 299 299 298 297 292 294 292 293 295 297 298 301 302 302 303 304 310 316 316 315 315 317 317 318 319 322 322 323 324 326 328 328 328 327 327 328 330 332 332 331 331 332 332 331 330 331 332 331 330 330 332 329 327 328 327 328 326 326 329 330 329 329 331 331 331 331 332 332
287 290 295 298 298 297 298 298 300 301 299 292 290 289 288 294 292 288 296 297 299 298 294 294 293 292 296 297 297 299 302 303 304 305 307 309 314 314 316 316 317 317 319 321 321 321 322 324 326 327 327 326 327 328 329 331 331 331 331 332 332 331 331 332 333 332 330 331 329 332 329 326 325 324 327 327 326 326 326 325 329 330 329 329 330 330
290 295 298 298 298 297 296 297 297 294 290 296 297 293 291 293 294 293 294 299 302 301 301 295 292 289 294 295 295 299 303 306 304 304 311 314 315 316 318 318 318 318 319 320 321 321 321 322 324 326 327 327 327 328 329 330 330 331 331 332 332 332 331 330 331 330 328 330 327 326 325 325 323 322 322 322 322 323 325 324 324 325 325 327 325 325
293 298 301 297 296 297 296 294 296 296 290 291 296 296 295 296 295 295 297 295 291 290 299 293 283 284 289 293 295 296 300 301 303 302 310 313 315 317 316 316 317 319 322 322 321 321 321 321 323 325 326 326 326 327 328 330 329 330 330 331 331 330 330 329 328 329 329 328 324 322 319 318 317 316 318 317 317 319 321 322 322 323 324 324 323 323
294 299 300 298 296 296 295 294 298 298 290 290 291 298 296 296 295 295 294 293 287 283 295 299 286 280 289 293 294 296 300 301 303 305 311 313 313 314 314 315 317 318 320 323 323 322 321 320 322 323 324 325 324 326 328 328 328 330 331 332 331 330 329 329 329 329 331 327 324 322 321 319 317 318 318 317 320 321 322 323 322 322 323 324 322 321
297 297 297 298 298 296 294 291 298 297 291 288 298 297 296 294 293 294 294 292 290 298 302 300 291 284 284 290 295 296 299 301 304 306 311 313 314 314 314 316 316 317 319 321 323 323 322 321 321 322 324 324 324 325 327 327 328 329 330 331 330 330 329 329 330 330 331 327 325 323 322 321 321 320 320 321 321 323 323 322 322 320 319 320 320 320
297 295 296 297 298 294 291 295 299 298 293 291 297 297 295 294 294 294 292 290 293 291 286 292 297 286 284 289 295 296 296 298 302 306 309 311 313 313 314 316 317 319 319 321 322 322 321 320 322 323 324 324 324 325 325 326 327 329 330 330 330 329 329 329 330 330 331 328 324 323 323 324 323 322 322 323 323 322 323 320 321 321 318 316 318 319
299 299 298 298 296 291 297 297 297 298 292 295 297 298 297 296 296 295 290 289 292 288 282 289 295 284 283 289 291 294 296 297 302 308 309 310 311 312 312 315 317 318 320 322 324 324 323 322 322 324 324 324 324 325 327 327 328 329 329 329 329 328 328 329 329 328 328 328 327 324 324 322 321 321 321 321 320 320 321 319 318 318 318 317 318 319
298 306 305 299 295 298 297 298 298 297 297 299 297 295 294 293 292 292 291 289 289 283 283 292 296 291 281 286 291 291 293 296 303 307 309 310 311 312 313 315 316 317 319 321 323 325 324 324 324 323 323 323 324 325 327 327 328 329 329 328 327 327 327 328 327 325 324 324 324 325 322 321 319 319 320 319 319 320 318 318 318 317 317 317 316 316
298 299 298 299 303 301 299 296 299 299 298 297 294 291 290 289 291 289 290 289 281 277 287 293 294 296 281 285 296 299 303 303 305 306 308 309 310 312 312 315 316 318 319 321 322 323 323 323 324 324 322 323 325 325 326 326 328 328 328 327 326 326 326 326 325 324 322 323 323 324 322 320 320 321 320 319 319 317 317 318 318 316 315 316 317 317
292 293 297 300 303 299 296 293 292 297 296 295 292 291 286 282 284 280 283 279 279 277 287 293 294 290 285 292 299 303 304 306 307 308 309 309 310 311 313 315 317 319 320 321 321 322 323 322 323 323 323 325 325 325 325 325 326 326 325 325 325 325 325 324 324 323 322 322 322 324 324 321 322 321 320 320 319 318 318 318 317 315 315 315 314 313
288 295 295 297 298 300 298 289 288 290 293 292 289 288 284 280 279 275 278 279 280 287 292 291 294 287 292 296 303 304 306 308 309 310 311 311 310 312 314 316 317 319 320 321 322 322 323 323 325 325 324 325 325 324 324 324 324 324 324 323 323 323 322 321 320 321 321 321 322 323 325 323 322 320 320 320 319 319 319 318 316 315 315 314 313 315
280 282 289 294 290 298 297 295 293 292 291 291 294 292 286 285 282 277 279 276 278 279 287 294 289 282 284 291 306 306 308 310 311 313 313 313 313 314 316 317 319 320 318 321 323 323 323 324 324 324 324 323 323 323 323 322 323 323 322 322 323 322 321 321 320 319 319 320 321 323 324 322 321 321 321 320 320 320 319 318 317 316 316 315 316 317
289 285 292 298 296 298 296 298 298 296 292 294 295 294 288 283 290 282 282 283 283 280 281 284 285 292 289 301 306 307 309 309 312 312 313 312 313 315 315 317 318 313 313 314 315 319 321 321 321 323 323 324 325 324 323 324 324 324 323 322 322 322 321 321 321 319 319 320 321 324 322 322 322 322 322 321 321 320 319 318 317 316 315 316 317 316
289 284 295 297 298 296 297 299 298 298 284 295 293 285 288 296 293 284 284 290 283 282 279 285 288 294 298 301 304 306 306 307 309 311 313 314 315 315 314 314 313 313 313 315 317 319 319 317 320 322 323 323 325 324 325 326 326 326 326 325 324 323 322 321 321 320 320 320 321 323 321 322 321 321 320 320 320 319 318 319 318 316 317 317 316 317
285 285 296 296 293 298 299 300 298 298 296 293 288 289 295 298 297 287 281 283 281 278 280 286 282 287 290 285 301 302 302 304 306 308 311 311 312 311 311 311 312 312 312 314 315 318 319 319 319 319 319 320 320 320 321 323 322 323 325 325 325 324 323 323 322 321 322 322 322 321 321 321 320 321 320 321 320 319 319 319 318 318 317 316 318 319
293 284 290 296 297 298 300 298 296 298 301 294 292 300 291 281 283 288 282 279 278 278 279 281 287 288 289 288 298 298 300 301 304 305 307 308 309 310 311 312 312 313 315 316 315 316 317 317 318 317 318 320 321 320 319 320 321 322 322 322 323 324 324 324 324 323 324 324 324 323 322 323 323 322 321 322 320 320 319 319 318 317 317 318 318 318
296 284 287 295 295 298 298 295 284 289 297 299 299 297 300 292 286 281 282 285 284 280 279 279 287 279 294 293 297 299 301 302 303 303 305 307 308 309 310 311 312 313 315 315 315 315 316 317 318 318 318 320 320 320 321 321 321 322 322 320 321 321 320 321 320 319 321 323 325 325 324 324 324 323 322 320 319 319 320 320 318 317 317 317 318 318
287 291 281 290 297 297 289 292 289 291 289 290 290 290 293 293 297 293 292 286 283 280 280 280 280 285 292 300 300 301 302 304 304 304 305 307 308 309 310 311 312 314 316 315 315 315 316 317 318 318 319 321 322 322 321 321 320 323 322 320 322 321 319 319 319 319 320 323 324 325 325 323 323 324 323 321 320 321 322 321 320 319 319 320 319 318
287 285 283 288 290 289 292 297 298 297 296 293 290 289 290 290 286 282 282 292 291 285 281 281 280 288 299 306 303 303 305 306 306 306 306 307 308 308 309 310 311 313 315 316 316 315 316 317 318 319 320 321 321 322 322 323 322 321 320 322 323 322 322 321 320 319 321 321 324 325 326 325 324 323 322 322 322 322 321 321 321 320 319 319 319 318
295 293 288 284 288 291 296 298 301 300 299 297 296 293 295 293 292 284 280 283 289 290 291 287 283 285 301 304 305 306 306 306 306 306 306 307 307 308 309 311 312 313 314 314 315 316 316 317 318 319 320 320 321 322 321 320 321 320 321 323 322 321 321 322 322 321 321 321 322 324 324 324 325 323 320 320 320 320 320 321 321 321 319 319 318 318
303 288 285 287 291 294 297 298 299 300 298 295 295 297 296 291 294 290 285 287 286 287 284 282 281 286 300 306 306 307 307 308 308 308 308 307 308 309 309 310 309 311 311 314 315 316 316 318 319 319 318 319 319 319 320 321 323 322 323 323 323 321 323 323 322 323 320 320 320 322 321 319 319 318 319 319 319 319 320 320 321 320 319 318 317 318
287 289 289 282 282 283 286 291 292 298 297 292 290 294 297 298 297 296 295 291 284 288 288 283 278 284 298 305 305 305 305 305 306 307 307 307 308 309 309 309 310 311 312 312 312 314 317 318 318 318 318 318 318 318 318 318 318 320 321 321 321 321 322 322 322 323 322 321 320 321 320 319 318 318 319 319 320 319 319 319 319 319 316 317 316 317
292 289 287 281 278 276 276 277 280 283 288 292 295 295 297 297 296 289 282 284 281 286 290 284 284 293 301 303 303 304 304 304 306 307 308 309 308 309 310 310 310 310 310 312 311 311 312 314 316 317 317 318 318 318 319 318 319 319 319 320 320 320 321 321 320 321 320 318 319 319 320 319 317 318 318 319 319 319 318 317 317 318 318 318 316 317
291 296 292 287 283 282 284 288 293 292 292 287 292 294 296 298 297 295 287 282 282 284 283 287 290 291 295 299 300 301 302 302 302 305 306 307 308 309 309 310 311 311 310 312 313 311 311 310 313 314 316 317 318 318 318 318 320 321 320 320 321 321 321 321 321 320 320 320 319 318 318 318 317 317 317 317 317 317 318 317 316 317 318 319 318 318
293 287 294 293 292 291 294 294 295 294 291 292 292 292 296 296 296 294 284 283 292 285 282 290 293 290 292 297 300 300 301 302 303 304 305 306 307 308 308 308 310 312 311 311 312 312 312 313 314 314 315 316 317 317 317 318 319 319 320 321 321 320 320 320 319 319 320 319 318 316 317 316 317 317 317 317 319 318 319 318 318 317 318 319 318 318
294 285 292 294 293 295 296 294 295 294 294 294 293 293 293 294 294 291 290 294 293 283 284 290 295 294 297 299 300 301 303 303 303 304 306 307 307 308 308 308 308 309 310 310 310 310 309 310 311 312 314 315 316 316 317 318 318 317 319 320 319 319 317 318 318 316 317 318 318 317 317 317 317 318 316 317 317 318 319 320 318 317 318 318 318 318
294 287 296 297 293 295 292 293 293 293 293 293 292 293 293 293 292 292 292 294 296 293 295 295 294 292 294 294 295 296 297 297 297 297 298 298 300 301 301 302 305 307 307 308 307 305 308 310 311 311 313 313 316 318 319 317 317 318 318 318 320 319 319 319 318 317 317 317 317 317 317 317 318 319 318 317 317 317 317 317 318 316 316 317 317 316
294 285 295 295 290 290 293 292 292 292 293 291 292 293 293 293 292 292 291 291 293 294 295 293 290 289 295 296 295 296 296 295 293 292 293 294 296 295 295 295 296 297 299 300 301 301 301 300 301 302 303 306 311 312 314 315 316 318 318 317 318 320 320 321 318 317 318 318 319 318 316 316 317 318 318 317 317 318 318 318 318 316 315 315 316 318
295 286 294 292 283 283 292 292 291 292 291 290 290 291 291 290 287 289 286 292 290 288 291 291 288 287 294 296 295 294 294 292 291 291 291 292 293 294 293 294 294 295 296 296 296 297 298 299 299 299 300 301 302 302 305 311 314 314 316 317 318 319 319 319 318 318 318 318 317 317 317 316 316 317 317 317 317 317 318 316 316 315 316 315 316 317
294 289 285 285 283 283 291 292 291 290 287 284 285 289 291 291 291 292 293 294 293 291 286 286 287 295 296 296 293 293 293 292 292 292 291 292 292 292 292 293 293 294 294 295 296 297 297 298 298 298 299 300 300 301 302 305 305 305 312 317 317 318 318 318 318 317 318 319 318 318 316 316 317 316 317 317 317 316 316 316 315 315 315 314 315 317
294 291 286 292 282 282 288 290 288 283 277 280 291 294 294 290 290 288 288 291 294 294 291 294 293 293 294 294 292 291 292 292 292 293 294 292 291 291 292 292 293 294 294 295 296 296 297 298 298 298 299 299 300 300 301 303 304 306 306 308 317 317 317 317 316 316 316 318 318 317 316 317 317 317 316 316 317 317 316 316 315 314 312 313 314 314
290 289 285 290 284 282 285 286 283 276 278 289 294 296 295 294 293 291 291 293 292 292 292 291 291 291 292 293 292 291 292 293 294 293 292 293 293 291 291 292 294 295 294 295 295 296 296 297 297 298 298 299 300 300 301 302 303 304 305 306 305 309 315 317 317 316 316 316 317 317 316 316 316 316 316 316 316 314 313 313 313 314 314 314 314 313
285 285 286 286 285 285 283 281 276 279 288 294 293 293 297 295 294 291 289 292 293 292 291 289 290 292 293 292 292 292 292 293 293 294 294 295 295 293 292 291 292 294 294 295 296 296 296 296 297 297 298 299 299 299 300 301 302 302 303 304 303 303 304 304 305 307 311 313 314 315 317 316 315 315 315 314 314 314 313 312 312 312 312 312 311 310
294 291 287 284 286 282 282 281 280 287 287 288 287 288 289 287 288 286 282 287 294 293 292 290 290 290 291 291 291 291 291 291 290 291 294 295 295 296 296 295 295 295 296 296 297 297 299 299 299 299 299 299 299 299 299 300 301 300 301 302 302 302 302 301 301 302 303 303 304 306 308 312 313 314 314 313 314 313 313 313 313 313 313 313 312 312
295 287 287 285 283 284 282 280 281 280 279 283 289 292 294 293 293 293 288 284 294 295 294 292 291 291 291 291 291 291 292 288 285 286 292 294 295 294 294 294 295 297 298 298 299 299 299 299 300 301 300 300 299 300 300 300 301 300 300 301 302 301 300 299 299 299 300 302 303 304 304 306 306 309 310 310 311 310 312 313 313 314 313 313 312 312
297 295 289 285 283 283 282 278 277 277 280 285 287 290 293 294 294 295 288 284 293 295 295 294 292 292 291 291 291 292 288 283 283 287 292 294 295 296 295 295 296 298 300 299 299 299 300 300 300 301 300 300 299 301 302 301 302 300 300 300 301 301 299 298 298 299 299 301 302 303 303 304 305 304 304 305 307 309 309 310 312 311 311 311 311 311
290 285 285 284 281 282 281 279 277 281 280 286 289 292 294 296 296 290 280 280 292 294 294 293 292 292 293 293 294 292 288 283 284 288 293 294 295 294 294 294 294 296 297 298 299 300 299 299 300 298 297 297 298 299 300 301 301 301 300 301 301 300 299 299 299 300 300 300 301 301 302 302 303 303 304 305 305 305 307 307 307 307 309 307 310 311
283 284 284 282 281 282 281 279 281 281 286 290 290 292 293 297 295 282 278 284 294 294 294 294 294 295 294 291 291 287 290 291 291 293 294 295 295 295 295 295 295 294 293 293 293 296 297 296 296 295 296 296 298 299 299 298 298 298 299 300 299 299 300 301 301 301 301 300 300 301 301 301 302 302 304 305 306 306 305 305 305 304 306 305 305 305
282 283 283 284 282 281 281 280 279 281 285 290 292 294 293 290 281 279 289 297 295 293 293 293 293 293 293 292 291 291 292 293 294 293 293 293 293 292 293 293 294 294 295 294 294 294 294 294 294 295 295 296 297 298 298 297 296 297 296 297 296 296 299 299 300 301 301 300 300 301 301 301 302 302 305 306 305 305 304 304 305 305 304 303 302 302
282 281 280 281 281 282 282 279 277 274 284 292 293 289 291 284 284 292 294 294 295 294 293 293 293 293 293 291 292 291 292 292 292 291 291 291 291 291 291 291 291 291 292 292 292 293 294 293 293 294 294 295 296 296 296 295 295 295 295 295 296 297 298 298 298 299 299 299 299 300 300 300 300 301 304 303 303 303 303 303 303 304 305 304 303 302
288 282 281 281 283 278 278 277 277 284 287 292 290 283 288 291 294 294 293 291 293 293 292 292 292 292 293 292 291 291 291 290 290 291 291 290 290 291 291 291 291 291 292 293 292 292 292 292 293 293 293 294 294 295 295 294 294 294 293 294 296 296 296 297 298 298 298 298 298 298 299 300 300 300 299 299 300 300 301 302 303 303 304 303 303 301
289 285 283 280 282 280 280 283 288 290 290 291 291 290 291 293 294 293 293 292 291 291 292 291 291 292 293 292 291 290 289 289 289 290 290 290 290 290 290 291 290 290 291 291 291 292 292 291 291 292 293 293 294 294 294 294 293 292 292 293 295 295 295 295 295 295 296 296 297 297 298 298 298 298 298 298 298 297 298 298 300 301 303 303 303 302
291 290 290 287 284 289 290 290 292 290 289 289 291 292 292 293 294 293 293 291 292 292 292 291 292 293 293 292 290 289 288 288 288 289 289 289 290 291 292 291 291 291 291 291 291 291 292 291 291 291 291 292 293 293 294 293 292 292 292 294 294 293 294 294 294 294 294 294 295 295 296 296 296 297 297 297 297 297 296 297 298 299 301 302 301 301
289 290 287 282 286 285 280 289 289 288 289 290 290 292 292 292 292 292 291 291 292 293 293 293 292 291 290 291 290 290 290 289 288 289 289 289 290 289 290 290 291 291 291 291 292 292 291 291 291 291 292 291 293 293 294 294 294 294 294 293 294 294 294 292 293 293 292 292 293 293 294 294 294 295 295 296 296 296 297 296 296 298 297 299 300 301
282 291 286 286 285 283 283 287 288 290 290 292 291 290 291 291 292 292 292 293 293 293 293 293 293 290 290 289 289 289 288 289 288 287 288 289 289 289 289 289 289 289 290 291 291 291 291 291 291 291 291 292 292 293 293 293 293 294 294 294 294 293 293 292 292 291 291 292 292 292 293 293 290 292 293 294 295 295 295 295 296 294 295 295 297 298
287 290 280 285 283 286 289 290 291 291 290 289 291 291 291 292 292 293 294 294 293 292 291 292 291 291 290 289 289 288 289 288 288 287 287 288 288 288 289 289 289 288 289 290 291 291 290 291 291 291 291 291 291 292 292 292 292 293 292 293 293 292 291 291 290 291 290 290 290 291 292 292 292 292 292 293 293 294 294 294 295 295 295 295 296 299
286 282 287 286 282 281 282 286 289 283 283 287 289 290 290 292 292 292 292 291 292 291 290 290 291 292 291 290 290 289 288 288 288 288 287 288 288 288 288 288 288 288 289 290 291 291 290 291 290 290 290 290 291 291 291 291 292 292 292 292 292 292 290 290 290 289 290 290 290 290 290 290 290 292 292 292 292 293 294 291 292 289 292 292 291 290
284 285 284 281 282 282 288 290 291 290 288 289 290 291 291 292 292 291 290 289 290 290 289 289 289 290 290 290 290 289 288 288 288 288 287 287 287 288 288 288 287 287 288 290 290 290 290 290 291 290 290 290 291 290 291 290 290 291 291 291 291 291 290 290 289 288 288 289 288 288 289 289 289 290 290 291 291 292 292 293 294 290 288 288 290 289
Wind_Speed
3 7 7 8 7 7 7 10 11 12 11 12 12 11 7 6 7 10 14 11 12 11 18 12 13 14 10 10 10 9 11 5 17 10 10 12 10 10 16 19 17 18 14 12 12 12 14 13 11 8 9 6 7 9 10 10 10 11 12 11 11 9 9 9 8 6 7 7 6 6 6 6 4 5 5 4 5 8 10 7 5 4 6 5 4 4
6 7 9 8 8 9 9 9 11 12 9 9 6 6 10 9 8 10 13 13 10 7 8 7 10 14 12 9 12 7 6 4 1 6 10 14 12 13 21 18 17 14 12 13 11 11 13 12 14 13 7 8 13 11 11 12 10 9 10 11 10 8 8 8 9 8 6 6 7 6 6 6 5 5 4 4 6 8 6 6 6 5 6 6 5 5
7 9 7 9 10 10 11 8 8 10 11 8 6 6 5 9 7 14 18 19 7 9 11 11 10 9 11 12 12 6 9 6 9 9 14 16 15 15 15 17 16 15 14 14 13 12 13 14 14 12 11 9 11 13 12 10 11 12 11 10 10 9 8 7 7 7 6 4 4 7 6 8 6 5 5 5 6 7 7 7 7 7 7 7 6 6
3 8 15 11 10 8 9 11 5 2 4 6 7 5 8 8 5 7 12 4 7 4 2 10 9 5 6 4 5 5 8 7 7 8 6 10 17 20 17 18 17 18 19 17 14 13 12 12 12 12 11 10 10 11 11 12 13 11 10 10 10 10 8 7 6 6 4 4 3 5 8 7 8 7 6 7 6 6 6 7 8 6 6 5 4 5
11 13 9 10 11 9 10 8 5 3 4 2 3 5 6 10 8 5 7 13 6 4 6 8 5 4 1 1 4 3 5 3 5 12 21 16 15 16 16 15 17 17 18 17 13 11 10 11 12 14 12 10 12 12 13 12 12 9 12 11 11 9 8 6 6 6 4 5 8 9 10 9 9 7 7 6 5 4 4 3 4 5 6 6 6 5
14 12 6 13 14 13 12 9 7 3 1 2 3 5 7 10 10 7 9 7 8 3 3 6 2 2 3 4 5 6 3 6 5 12 19 19 15 13 14 12 11 12 16 19 17 18 17 13 11 11 12 13 11 11 9 9 9 9 9 9 8 7 7 7 6 5 6 9 11 11 11 10 8 8 7 7 8 6 5 5 3 4 6 6 5 5
9 8 9 10 14 13 14 9 3 4 4 0 4 4 8 13 7 5 9 5 0 4 3 3 5 3 4 5 6 5 5 7 6 15 19 17 14 14 13 12 12 13 11 12 13 14 12 12 13 12 11 9 9 7 6 7 8 9 9 9 9 9 8 7 7 7 7 8 10 11 10 10 10 9 6 6 6 7 4 4 5 5 5 7 7 5
7 12 8 9 5 7 4 4 2 3 4 6 1 6 9 10 8 6 5 6 3 2 1 1 5 3 2 6 6 4 7 10 19 20 15 14 14 13 13 12 11 11 12 12 13 12 11 11 12 12 9 8 9 7 6 6 7 10 10 10 10 9 10 8 7 6 8 9 9 9 9 9 8 8 8 8 6 6 6 6 6 6 6 5 6 6
10 8 8 4 2 2 4 4 3 7 5 3 5 10 11 12 8 4 3 5 2 3 2 1 3 2 3 7 5 2 5 8 17 14 15 15 14 11 12 12 11 11 11 10 12 11 10 11 11 12 11 7 5 6 6 5 5 5 6 8 8 9 8 7 7 7 8 9 9 10 9 8 7 9 8 8 7 7 6 6 4 5 5 6 5 6
3 8 10 7 2 3 2 2 5 5 5 7 8 6 6 7 8 8 4 5 1 3 3 2 2 2 3 4 3 4 8 9 15 13 15 16 15 13 11 13 12 12 12 9 11 11 9 9 10 10 10 8 6 5 6 5 5 4 4 6 8 9 8 8 7 8 8 9 8 9 8 11 9 9 8 8 8 7 5 6 6 5 6 6 6 5
5 4 7 7 6 5 3 5 6 7 10 3 6 8 7 6 5 4 5 3 2 2 5 4 2 3 2 4 3 3 3 7 13 8 10 11 10 10 10 11 10 11 12 11 9 9 8 7 9 9 10 9 6 5 6 8 8 7 7 7 8 7 6 6 7 8 8 6 6 9 12 12 12 11 10 9 7 7 7 7 6 6 6 6 6 6
9 6 5 1 3 4 6 5 6 9 7 8 4 4 4 7 5 3 1 3 1 2 3 5 5 3 4 3 5 3 8 9 19 16 14 11 10 8 6 8 8 9 11 12 10 10 8 6 7 8 9 9 7 5 6 6 7 7 6 8 9 7 7 6 6 7 6 7 6 8 11 12 12 11 10 10 9 8 8 7 7 6 6 6 6 6
7 8 1 2 2 4 2 6 6 8 6 10 4 2 1 2 0 3 0 3 4 3 3 7 8 3 3 1 2 8 8 9 13 16 16 13 11 8 9 9 7 6 11 11 10 9 9 7 8 9 9 10 9 8 7 6 6 5 4 5 9 8 6 7 6 7 7 7 7 8 10 10 10 11 11 9 9 8 8 7 7 7 6 6 7 6
5 6 4 5 4 6 4 3 3 5 1 2 7 5 2 1 1 3 2 1 1 1 2 5 6 3 3 3 6 9 10 12 11 13 17 16 13 12 12 11 8 6 8 10 9 8 7 6 6 7 8 8 8 7 6 5 4 4 4 3 5 5 4 3 3 4 5 6 6 6 7 8 9 10 10 9 9 7 7 7 8 7 7 7 7 6
2 4 8 3 3 6 6 8 4 4 3 5 2 6 8 5 3 4 1 2 4 4 5 6 4 3 4 1 5 9 11 12 10 10 9 10 10 9 10 11 10 8 9 8 7 7 6 7 6 6 5 4 4 4 3 3 3 3 3 3 4 4 2 2 1 1 2 2 3 2 1 6 8 9 8 8 8 7 8 7 8 7 7 7 6 7
7 6 6 10 7 9 9 5 6 4 4 2 3 1 2 4 3 3 5 2 2 1 2 4 2 2 4 3 3 6 13 14 12 10 8 8 8 11 11 10 9 10 11 13 11 1 6 6 4 4 4 6 6 5 4 4 3 3 4 4 4 4 4 2 2 2 2 2 2 1 2 7 8 7 7 7 6 6 8 7 8 7 7 6 7 6
1 4 4 12 12 8 11 6 6 2 1 4 3 4 7 7 7 3 1 0 5 3 2 3 2 2 1 5 5 7 11 11 12 9 9 9 10 10 9 8 10 10 11 14 17 16 8 3 4 6 7 7 10 7 4 5 6 7 8 7 6 5 5 3 2 2 3 3 2 1 2 6 7 8 7 7 7 7 7 7 7 7 7 7 7 7
2 5 4 5 9 9 5 9 6 7 6 2 2 5 2 2 4 5 3 2 1 2 2 4 6 3 4 3 2 5 9 5 8 8 7 7 7 9 7 6 8 9 7 7 8 4 4 4 4 2 2 5 11 11 5 1 1 2 3 4 8 7 8 5 4 3 2 2 2 2 4 6 7 7 7 7 7 7 7 7 7 7 7 7 7 6
3 5 5 2 1 3 5 6 8 6 7 9 8 3 1 1 1 5 4 1 0 1 1 2 5 2 2 1 4 2 6 4 5 5 7 7 7 7 6 7 6 7 7 6 8 6 5 6 4 2 3 4 7 10 11 4 2 1 0 2 3 4 4 6 4 3 2 2 3 3 4 5 5 5 6 6 7 6 7 7 8 8 7 7 6 7
2 3 4 4 2 3 4 4 2 5 5 8 2 2 1 7 5 0 1 2 6 2 0 3 6 2 1 2 1 6 7 8 6 5 5 6 6 5 5 6 8 8 7 7 7 6 6 5 6 5 3 4 4 5 5 7 2 3 2 3 2 2 2 5 4 3 2 3 3 4 5 6 6 5 7 8 8 7 6 7 7 7 7 7 6 6
3 4 3 4 2 1 4 2 2 1 2 3 4 1 3 1 3 6 0 3 2 2 4 4 1 3 5 7 5 10 9 8 9 8 4 5 5 4 4 4 6 7 8 8 7 6 7 6 5 4 3 6 5 6 5 5 6 2 1 3 2 3 1 1 3 3 2 4 4 6 7 7 7 7 7 8 8 7 7 6 6 7 6 5 5 5
2 3 6 2 3 0 3 1 8 8 9 8 4 2 1 3 3 2 2 2 1 1 0 1 3 1 5 7 2 9 6 7 5 7 7 5 5 3 3 3 4 5 7 9 9 8 7 6 5 4 4 5 5 6 4 5 7 6 2 0 2 4 2 2 0 2 1 3 4 6 8 7 6 6 6 7 7 7 6 6 6 6 6 6 5 5
5 2 1 2 4 3 1 7 6 9 9 9 11 9 8 7 4 3 5 4 1 1 3 3 4 2 5 7 12 4 6 7 7 7 8 7 6 5 3 2 1 3 4 4 9 9 9 8 7 7 8 8 8 8 8 8 9 9 8 6 5 2 6 6 2 0 3 6 7 8 8 9 8 7 6 7 5 5 6 6 6 6 6 6 5 4
6 1 3 3 2 3 4 5 9 10 9 7 9 9 8 4 3 3 5 7 4 1 3 4 3 1 4 7 7 7 7 7 9 10 9 9 8 10 11 9 2 4 4 8 6 6 7 7 6 4 5 8 9 9 10 9 9 9 10 12 12 11 7 3 1 4 5 2 3 5 7 7 10 9 7 3 1 3 2 4 5 5 5 4 4 5
2 4 1 2 3 5 7 8 4 6 9 3 4 5 6 5 7 4 3 4 5 4 9 6 2 0 3 6 5 14 13 12 12 11 12 11 9 8 9 12 13 9 5 8 9 11 10 7 4 5 7 6 6 6 6 7 8 6 6 7 7 6 6 5 6 7 7 3 4 5 4 8 9 7 3 3 1 2 2 2 4 4 5 4 4 4
3 4 2 1 2 2 0 2 2 1 1 1 4 9 10 10 5 4 3 3 2 1 8 6 2 2 3 5 7 8 8 10 10 10 11 9 7 8 8 10 10 12 14 6 7 10 10 6 5 6 6 7 5 5 5 4 4 5 7 8 6 9 9 8 6 4 4 5 3 4 7 8 9 9 8 6 3 3 4 6 6 5 5 4 4 3
2 1 2 1 2 1 2 3 2 2 3 5 4 12 9 10 8 5 5 3 0 1 5 1 11 6 3 2 4 7 6 10 11 10 10 10 11 11 9 8 8 8 7 13 5 5 5 6 7 6 7 7 5 4 5 5 5 5 6 9 8 8 8 7 7 7 8 8 9 6 4 5 6 8 8 5 3 2 2 3 6 6 6 5 6 5
2 1 3 5 4 3 3 2 5 4 4 6 9 8 12 10 8 10 4 2 3 3 4 3 8 8 2 2 6 6 5 9 9 8 9 10 9 6 5 7 9 8 9 11 12 13 12 12 9 8 7 7 6 7 6 5 5 5 6 7 6 6 7 7 7 7 6 4 3 4 5 3 2 3 2 4 4 4 4 2 1 3 2 3 4 5
3 1 5 4 5 2 2 8 6 4 4 6 10 11 10 10 11 9 1 5 1 3 7 3 9 11 7 8 6 6 8 11 11 10 8 7 6 7 6 8 8 8 8 9 11 13 13 14 11 10 7 5 7 6 4 4 4 4 4 5 5 5 6 7 9 8 8 6 3 4 5 6 2 5 5 2 4 7 8 7 3 3 4 5 5 6
1 2 2 4 3 3 6 7 5 6 3 8 12 10 10 12 6 7 6 8 13 10 11 13 15 13 9 9 11 10 10 12 9 8 11 12 10 11 13 13 12 12 11 11 12 12 10 10 8 9 6 3 1 4 3 3 3 2 3 3 4 5 6 8 6 8 7 6 3 2 6 6 5 7 8 7 5 7 5 1 2 2 4 5 5 6
5 3 6 3 3 2 5 8 5 6 6 4 7 9 10 9 9 7 5 7 11 12 10 15 15 11 5 8 10 9 11 11 15 15 11 10 11 13 15 14 14 14 14 13 13 13 13 14 14 15 16 14 9 4 1 2 3 4 5 3 4 6 5 7 8 5 6 7 5 3 3 3 2 3 4 5 5 4 5 4 1 2 4 4 4 5
6 0 5 1 2 3 5 4 8 8 9 8 7 6 5 5 6 2 3 2 6 6 6 12 11 7 6 10 12 12 14 15 14 12 11 9 10 13 15 13 13 13 13 13 13 12 13 14 14 14 13 13 14 14 11 7 4 4 7 6 6 6 6 7 7 7 6 5 5 5 4 3 3 4 4 5 5 4 3 2 3 2 3 3 4 4
4 3 3 5 5 3 7 11 7 7 5 5 6 7 3 9 8 5 7 6 5 12 7 5 6 6 8 9 16 12 13 12 13 10 8 10 11 13 14 13 12 13 12 12 13 13 13 12 12 13 12 13 13 13 13 11 12 12 4 7 7 5 7 8 8 8 8 6 5 5 4 3 3 3 4 5 5 3 4 5 2 1 1 3 2 4
5 6 4 3 2 2 8 7 7 5 4 2 4 7 1 4 6 12 7 7 8 6 5 7 10 9 9 9 13 11 15 10 8 6 6 6 7 11 12 12 11 10 10 11 11 11 11 10 10 11 11 10 11 11 11 15 12 10 11 8 4 6 6 6 6 6 6 5 4 4 3 3 2 2 1 3 5 5 6 6 6 6 3 3 3 4
5 5 6 4 5 1 2 5 6 2 2 2 9 7 12 10 11 14 11 11 12 13 14 13 12 12 11 11 12 12 10 9 7 7 6 7 8 6 8 10 10 9 9 8 9 9 9 8 9 11 13 13 11 11 14 16 14 13 15 13 12 10 7 7 6 5 4 3 7 5 5 4 3 2 1 2 5 4 5 5 6 6 5 5 5 5
4 7 3 2 4 1 2 2 3 2 1 2 3 10 7 8 7 11 11 9 7 9 12 13 11 11 12 13 11 10 11 10 9 7 6 4 5 6 7 8 8 9 9 6 7 6 7 8 9 9 9 9 12 12 12 12 12 14 12 13 13 11 11 10 9 7 6 6 6 4 4 10 9 7 4 3 3 4 2 2 2 3 2 2 2 2
7 2 2 2 1 3 3 3 4 3 2 7 4 5 7 5 5 1 5 3 4 4 11 12 11 11 12 12 12 10 10 11 11 7 4 6 6 6 9 7 8 9 7 6 6 6 6 6 9 9 8 11 12 13 12 10 10 11 12 12 12 12 12 13 12 11 8 6 4 4 3 3 4 8 8 6 6 6 6 5 5 4 4 5 4 5
2 3 3 2 1 2 7 4 2 1 3 2 3 7 3 5 7 7 6 2 2 4 4 11 13 12 13 12 11 11 8 12 9 2 3 5 7 10 9 10 8 6 6 7 6 5 4 7 8 8 9 12 13 11 10 12 12 12 13 12 11 12 12 13 12 11 11 11 10 10 8 5 5 4 1 3 3 3 5 6 5 6 6 6 6 6
7 5 3 4 1 2 3 5 2 2 1 1 6 7 6 4 8 7 5 3 1 2 3 6 8 8 10 11 12 7 7 10 5 5 5 5 6 8 8 6 7 7 8 7 6 7 5 4 5 4 5 9 8 8 7 9 11 12 12 12 11 10 12 11 11 11 11 9 9 9 8 8 7 5 4 3 0 1 3 4 5 5 4 5 5 5
10 6 6 7 3 1 2 3 3 2 1 3 6 6 6 4 6 2 6 2 3 3 3 4 5 4 4 4 4 6 8 11 7 7 6 6 5 5 6 6 5 4 3 3 3 3 4 3 3 3 5 6 5 4 6 6 6 7 9 8 9 11 10 9 8 8 8 8 8 8 9 8 8 7 7 6 4 2 1 2 3 4 4 4 4 6
5 3 4 2 2 4 6 2 3 1 1 3 5 9 8 1 1 5 3 1 1 4 3 4 4 3 4 7 7 8 6 8 9 8 7 7 8 8 8 8 8 7 7 7 7 4 2 6 7 7 6 6 6 6 7 7 8 8 8 7 9 8 7 6 6 7 7 7 8 9 9 9 8 9 8 5 4 4 2 2 0 4 5 4 4 4
2 0 2 3 3 2 1 5 2 1 2 5 9 5 2 1 4 5 1 0 10 7 10 11 12 10 9 9 9 9 8 10 11 10 11 10 9 8 9 9 9 9 9 10 11 10 7 8 9 9 9 9 9 8 8 8 9 9 9 8 9 7 7 9 7 7 7 8 8 8 9 10 10 9 7 8 8 8 6 5 5 3 1 1 4 5
1 1 2 2 2 2 2 4 2 1 3 9 5 4 9 5 3 4 7 9 7 9 10 11 11 10 12 13 12 12 12 11 11 10 9 9 9 9 9 9 8 8 9 10 10 10 8 7 8 8 7 8 9 8 8 8 8 7 8 8 8 7 8 8 8 9 8 7 8 7 8 8 9 8 6 7 8 8 8 7 6 5 5 4 3 2
4 2 2 2 1 2 2 2 2 1 3 8 8 4 2 3 4 6 9 8 8 8 10 9 9 8 10 11 10 10 9 9 9 8 8 7 6 7 7 7 7 7 7 7 6 6 6 5 5 6 6 7 7 7 7 7 6 6 6 7 7 7 7 8 8 8 8 8 7 8 7 6 6 7 8 8 8 7 8 8 7 7 5 5 5 5
3 5 2 4 3 2 2 4 5 5 5 6 7 7 9 11 12 11 10 8 8 7 5 8 8 9 9 9 10 9 9 7 6 6 6 5 5 5 6 6 4 4 4 5 4 5 4 4 4 5 6 5 5 5 5 5 5 5 5 4 5 6 5 6 6 6 7 8 8 8 8 8 8 8 7 7 8 9 8 7 6 7 7 5 3 3
8 11 8 9 8 10 9 7 7 5 6 8 7 7 8 9 9 8 9 9 9 9 9 9 9 7 8 9 10 7 6 5 5 5 5 5 5 5 5 4 3 3 3 4 3 3 3 4 4 4 4 5 3 3 3 3 3 4 3 3 4 4 4 4 5 5 6 6 7 8 8 8 8 8 8 8 7 6 6 7 8 7 7 6 6 4
3 3 3 6 7 6 5 3 6 7 6 6 8 9 9 8 8 8 10 9 9 9 9 7 8 9 9 7 8 7 5 4 4 4 4 4 5 4 4 3 3 3 2 2 1 3 3 3 3 3 3 3 3 2 1 1 1 0 0 1 1 2 2 2 2 3 3 4 3 4 5 6 6 7 7 7 7 6 6 6 6 6 7 7 6 6
1 5 8 4 5 5 5 5 5 6 5 6 6 6 8 9 8 7 6 6 6 6 6 7 7 7 5 7 5 7 5 5 5 4 2 4 4 4 4 4 4 4 4 3 2 2 3 2 2 1 1 2 4 3 3 4 6 8 9 8 8 8 6 4 3 3 3 4 4 4 4 4 6 7 6 6 6 7 7 7 6 6 7 7 7 6
3 3 3 2 5 7 9 7 7 7 6 6 7 7 6 5 7 7 6 6 6 7 6 5 6 5 5 4 6 4 6 6 5 5 4 5 4 4 4 5 4 4 3 2 1 1 2 1 1 2 5 6 6 7 7 7 7 8 8 8 8 9 9 9 9 8 6 5 5 6 7 7 6 7 8 8 7 6 5 5 7 8 8 6 2 4
8 6 5 7 8 4 4 8 8 6 5 5 6 6 5 5 6 6 5 6 5 5 5 4 6 8 7 5 5 6 6 5 4 4 4 4 5 5 5 3 2 2 3 2 2 5 5 6 5 6 6 6 7 7 7 7 7 7 7 7 7 8 9 8 8 8 9 8 8 8 8 8 8 8 8 8 8 9 9 12 9 3 4 8 13 11
6 2 2 3 4 5 5 7 8 7 7 6 5 4 4 4 6 6 6 6 7 8 7 8 6 5 4 4 5 6 6 5 5 4 4 4 5 4 1 1 2 4 3 6 8 8 8 8 7 6 6 6 6 7 7 7 6 6 6 5 6 7 7 7 7 7 6 7 6 8 7 7 7 7 7 7 8 8 9 9 10 6 5 3 6 10
Wind_Direction
137 197 217 217 222 226 222 222 235 248 249 257 272 280 275 255 263 253 245 234 225 191 199 189 183 202 217 230 249 258 265 283 158 160 124 153 138 129 93 104 112 110 123 137 125 123 121 117 113 129 153 152 124 134 140 139 146 145 145 146 142 142 145 143 145 147 141 127 115 114 140 142 142 121 113 114 141 189 180 169 140 131 134 139 139 145
179 197 229 225 219 228 239 219 221 244 262 263 274 289 286 284 276 269 268 242 212 170 199 165 171 193 209 221 236 226 189 181 68 140 116 152 138 126 112 119 122 124 124 120 115 131 128 132 137 145 169 157 146 161 153 151 152 150 147 143 140 146 154 152 154 158 154 141 150 157 168 150 140 132 129 149 158 154 158 149 148 145 143 148 156 162
202 218 231 227 228 225 238 239 232 227 241 255 243 256 299 282 284 296 272 252 216 161 172 183 161 201 211 202 227 163 161 190 173 168 153 155 152 113 117 114 119 120 123 128 134 145 140 139 143 150 164 175 159 156 154 151 152 156 154 146 148 158 153 159 161 153 146 146 151 155 159 146 141 149 150 133 129 130 139 149 155 159 157 158 163 165
229 241 226 214 233 235 241 241 221 259 262 244 259 269 249 266 290 316 310 353 130 108 138 184 181 224 200 227 251 209 189 188 179 143 110 108 98 120 128 128 125 126 131 134 143 141 141 141 148 158 167 165 158 161 160 160 161 161 157 152 156 159 154 157 163 149 145 147 169 122 129 119 125 139 123 113 117 117 119 141 161 159 160 154 148 156
215 230 207 218 232 233 239 247 207 192 285 262 253 253 268 282 277 4 298 330 342 36 93 72 37 346 333 302 319 290 198 140 144 100 82 87 101 114 116 122 130 136 134 135 132 134 146 153 165 168 168 161 169 172 169 163 162 164 160 158 157 151 148 151 148 145 140 121 107 109 105 106 101 100 113 112 106 131 149 141 120 153 156 152 148 135
246 242 200 203 221 230 243 244 214 154 263 306 244 226 243 264 280 308 305 349 351 341 345 103 47 306 287 298 261 271 78 154 130 103 93 95 107 110 111 105 109 127 138 141 148 160 170 167 162 171 169 172 171 174 167 159 160 162 158 152 144 132 139 145 151 148 146 137 131 127 128 130 133 134 130 133 144 140 148 162 156 107 101 104 105 102
236 239 227 205 204 222 227 222 204 142 229 235 257 258 262 263 267 267 286 344 97 167 268 108 149 265 320 276 278 263 139 132 81 75 99 104 110 114 115 130 134 131 130 135 149 158 158 170 161 171 171 163 160 177 172 162 161 163 157 154 147 145 147 151 156 161 149 140 135 136 138 139 142 144 151 148 143 146 154 115 106 108 98 105 105 105
209 239 234 228 193 208 180 168 213 148 176 247 234 267 271 273 256 239 249 249 223 192 51 96 126 162 288 280 250 225 153 116 87 108 114 114 121 127 132 132 132 133 143 149 160 170 167 161 161 161 167 171 174 164 169 170 165 166 163 156 155 154 153 159 158 165 149 137 134 134 135 139 139 141 141 139 141 131 130 121 118 112 108 107 113 109
197 218 235 243 200 176 194 186 199 188 207 224 222 234 253 267 266 237 202 249 246 75 314 179 152 98 246 265 277 205 154 132 117 123 121 125 129 138 132 120 125 146 147 155 153 178 168 158 159 158 170 178 157 162 168 175 169 165 162 157 153 147 143 151 160 153 139 137 142 143 143 134 137 129 132 129 130 130 130 115 100 96 102 102 104 111
218 193 189 208 224 240 203 204 196 192 209 239 249 262 272 283 287 274 219 223 316 134 271 268 138 191 283 282 316 254 180 168 135 139 140 141 144 148 144 139 149 143 138 152 164 172 168 157 156 162 161 159 163 158 153 146 156 160 165 157 147 147 154 162 160 142 142 149 149 144 138 135 133 126 124 124 129 128 116 115 118 113 97 90 81 81
260 189 185 192 192 204 184 225 228 218 219 211 210 229 262 268 263 273 186 135 65 164 240 233 256 159 280 274 256 310 214 168 125 119 134 139 137 141 140 130 141 139 140 153 162 167 177 152 144 148 165 160 154 160 156 152 163 167 165 158 152 157 156 159 151 137 142 139 138 143 142 139 135 132 130 131 128 119 124 128 127 114 112 105 106 98
249 259 200 187 166 180 186 254 230 233 212 211 208 207 234 292 301 344 306 96 137 254 246 178 230 169 213 301 351 325 333 126 134 143 140 136 142 139 127 121 134 135 142 152 156 159 184 154 143 155 160 159 158 152 152 150 160 162 162 158 152 158 164 159 153 134 143 143 144 141 142 140 140 137 138 141 139 142 139 137 130 127 113 108 103 97
228 245 201 254 80 337 178 236 269 240 210 200 198 176 131 289 16 310 40 228 198 181 232 191 193 237 225 175 27 33 35 22 127 138 138 148 154 137 136 129 133 132 136 149 152 156 169 173 159 166 168 158 163 171 159 149 153 144 150 158 153 163 171 164 156 149 153 146 150 143 143 142 140 139 140 139 139 147 140 140 135 131 126 117 105 115
269 263 229 199 184 193 220 209 245 266 270 135 168 155 149 126 164 245 266 188 263 278 220 209 205 189 209 57 38 62 34 75 107 124 144 152 150 150 133 129 134 133 133 140 144 147 161 170 169 173 172 161 161 168 156 141 132 125 131 150 153 161 162 137 138 146 153 154 150 142 144 144 140 140 139 139 141 147 139 142 140 137 136 132 136 127
275 251 262 213 219 155 209 209 195 199 193 214 188 153 174 169 152 205 193 190 213 212 261 226 171 225 129 196 79 81 70 75 108 127 136 132 132 119 121 125 131 113 62 60 119 139 161 174 174 167 163 142 136 141 110 88 85 97 139 170 160 143 94 69 65 103 114 105 91 72 125 139 135 137 135 140 146 143 140 143 138 139 135 137 138 131
215 204 228 211 215 171 208 198 234 274 336 264 231 189 187 214 162 139 220 146 212 17 358 354 135 322 135 223 75 80 87 77 80 89 104 109 112 115 121 126 111 96 95 87 71 46 165 173 157 144 150 133 119 99 78 89 112 133 171 181 171 143 114 120 156 128 120 107 99 81 149 135 129 128 128 133 135 133 138 140 136 139 140 135 129 132
288 280 222 204 209 179 196 177 214 161 167 276 27 217 213 189 129 106 348 313 76 60 264 167 33 357 5 56 73 80 80 92 93 91 95 96 100 104 105 100 108 117 124 138 156 181 158 110 130 171 168 122 103 90 96 163 178 171 176 176 146 127 142 155 132 139 143 130 136 109 152 127 129 132 138 142 137 136 134 130 133 135 139 128 130 133
184 237 294 19 209 216 199 182 211 176 159 106 240 238 260 23 116 132 180 347 32 137 254 119 151 184 142 175 128 69 86 70 96 110 104 92 100 104 105 104 118 136 147 146 144 131 117 127 132 135 61 89 109 121 203 185 169 220 187 135 141 152 154 142 134 159 135 132 133 133 141 123 134 134 136 132 136 135 123 127 128 127 127 135 139 134
223 294 293 242 21 255 225 175 206 243 162 172 201 224 44 325 13 318 93 131 158 203 243 311 174 122 87 229 126 131 126 125 103 103 104 108 108 114 117 122 117 124 125 126 126 138 134 127 131 121 105 98 112 148 163 98 328 263 215 53 75 119 132 131 123 93 63 71 110 147 132 114 121 124 121 117 122 120 122 131 132 134 136 132 131 132
151 176 296 313 260 16 330 162 236 248 227 227 146 103 93 110 163 119 190 184 118 231 66 316 51 256 275 309 132 175 166 145 131 112 113 117 129 132 140 143 137 139 140 137 138 141 130 125 126 116 109 120 109 115 125 137 192 228 187 129 109 117 81 95 86 68 69 40 74 101 84 75 90 108 119 119 117 113 116 129 128 128 129 137 134 138
300 127 212 286 350 66 356 323 203 40 337 290 250 144 173 150 197 117 104 141 148 171 179 175 1 287 286 299 263 178 160 148 140 132 118 116 123 133 137 141 133 140 136 136 135 145 139 129 122 114 103 98 103 143 152 156 158 226 88 134 154 154 106 107 127 110 63 50 72 86 80 81 83 90 98 103 105 99 100 105 120 131 138 127 135 140
45 346 183 283 350 50 185 334 17 22 44 30 353 283 241 163 101 114 283 317 12 347 323 124 187 270 326 347 247 150 130 117 115 126 125 102 86 83 94 116 137 146 135 140 145 143 138 128 121 120 113 113 122 118 73 78 95 100 145 357 48 73 66 272 192 123 71 81 89 79 90 92 92 87 87 88 88 99 107 109 119 133 129 133 149 140
136 246 250 216 202 210 100 27 5 44 57 70 50 19 17 19 85 119 137 254 43 208 172 141 109 351 15 17 360 347 113 100 89 83 77 63 52 45 41 58 74 101 130 138 135 143 137 134 135 152 149 144 123 116 119 127 149 163 165 142 105 183 230 213 163 34 33 28 34 55 58 59 51 54 85 96 78 103 129 134 131 132 129 134 145 144
29 65 315 288 338 341 14 55 27 29 32 47 39 40 28 17 312 213 173 183 151 306 48 10 65 206 345 24 54 346 7 53 58 54 64 59 44 38 16 333 10 105 85 89 109 112 113 119 137 137 106 106 112 139 160 167 156 165 165 162 168 183 201 206 77 97 76 43 53 49 72 73 68 59 36 37 115 108 147 147 130 123 123 137 150 156
45 305 105 291 355 342 350 1 14 29 48 59 57 29 31 8 31 16 54 43 107 205 158 117 187 276 322 359 19 65 29 36 49 49 54 45 43 51 44 25 5 356 37 74 82 100 104 112 116 101 104 94 89 89 105 123 149 145 144 135 155 139 115 84 87 123 159 161 122 66 88 96 110 108 130 134 70 136 150 98 99 124 147 149 156 170
92 265 347 140 157 130 288 242 260 346 35 355 66 41 33 38 7 47 55 353 80 297 112 113 122 258 344 41 18 57 93 66 59 61 56 57 66 61 60 65 37 20 350 353 72 98 121 122 107 122 115 104 95 90 92 88 88 118 132 135 126 122 131 150 154 113 107 112 100 138 160 138 140 153 176 167 124 129 172 170 153 153 166 155 164 165
129 270 310 264 164 167 204 181 202 148 59 55 33 50 45 43 47 94 100 73 209 270 75 298 147 136 101 56 67 27 52 71 70 59 62 47 30 29 32 39 65 63 21 336 18 54 65 108 131 109 107 111 102 86 69 64 72 77 84 93 117 131 130 130 121 118 122 142 156 171 123 120 146 166 176 166 124 70 32 186 168 161 174 171 164 169
58 15 274 273 284 212 188 139 149 117 89 61 57 57 57 51 62 63 82 197 220 77 20 53 126 103 171 122 85 55 28 74 68 69 77 81 74 61 50 55 47 44 35 349 4 29 42 42 62 92 100 91 81 72 63 58 64 73 87 99 101 103 109 114 109 112 101 101 141 157 134 80 101 130 62 69 89 63 25 7 190 135 114 109 107 103
110 338 270 256 294 319 320 129 137 97 102 92 80 68 62 61 54 78 353 281 226 140 160 137 107 101 94 79 78 88 86 67 58 60 65 79 86 78 71 71 65 55 57 38 20 20 22 50 30 9 22 46 80 89 96 99 85 82 76 97 112 108 100 98 91 87 102 107 157 168 103 112 124 97 89 12 44 55 37 18 21 74 101 106 110 110
97 217 311 326 243 260 95 83 80 109 126 106 92 90 85 71 63 74 63 24 74 79 104 108 85 63 51 63 58 54 62 70 62 53 52 55 58 58 54 46 45 48 50 51 51 52 42 28 30 30 33 74 260 99 87 93 105 116 126 125 104 92 103 107 114 118 118 121 131 110 112 125 134 132 139 143 119 98 95 24 326 95 112 120 124 119
82 309 334 356 340 326 104 88 74 71 75 94 104 99 90 93 68 44 55 36 62 72 77 83 81 78 48 67 66 57 63 67 57 48 45 49 59 67 65 59 52 44 39 37 37 39 43 42 39 35 31 19 13 28 51 157 182 169 158 124 94 103 99 95 104 103 107 127 159 150 108 110 97 78 108 125 108 112 150 175 200 84 90 109 129 130
66 154 322 16 57 319 10 67 97 68 69 63 59 42 92 78 67 358 48 334 99 102 89 92 88 102 107 84 69 52 57 59 64 57 51 39 46 63 66 61 57 53 47 44 39 31 35 39 38 38 31 28 24 21 5 0 24 67 104 110 111 121 113 109 113 107 105 106 89 80 83 91 95 101 120 129 135 142 145 92 43 28 95 115 134 137
121 112 60 8 39 355 22 10 1 89 57 39 358 330 59 90 115 88 53 49 120 131 108 92 127 127 126 112 90 69 65 60 60 50 49 49 56 65 67 64 60 55 46 40 39 35 31 31 34 31 29 29 23 19 7 11 30 22 30 117 133 115 113 115 113 119 123 125 121 119 124 129 131 137 129 134 137 137 95 98 113 264 142 142 165 131
120 115 105 85 63 294 337 47 33 31 61 45 281 301 153 122 110 80 56 52 56 68 107 108 102 85 76 74 95 102 91 84 86 71 57 57 59 72 72 73 66 59 53 46 42 39 32 30 30 32 31 29 24 22 22 26 15 17 32 28 43 110 117 111 106 106 111 104 90 91 67 28 88 76 121 147 153 155 154 159 175 187 186 154 148 131
122 109 127 147 140 200 327 55 60 66 82 305 309 40 70 76 68 80 63 55 69 76 85 89 93 100 104 105 108 105 102 102 94 90 67 81 68 39 76 71 63 58 53 41 37 33 32 28 28 28 26 19 15 23 33 31 20 28 36 43 54 39 44 55 57 51 32 76 125 129 97 64 40 324 335 108 136 152 152 162 164 169 166 157 159 150
118 113 133 91 123 94 69 62 121 125 202 309 2 21 41 80 75 65 52 32 47 88 95 93 100 105 111 113 111 114 115 112 92 74 81 62 94 112 75 65 63 62 55 41 37 29 34 30 36 34 29 15 19 25 33 31 28 34 32 39 41 47 55 68 75 84 97 69 7 357 148 160 170 195 182 187 155 145 152 153 141 138 159 137 144 127
141 117 84 144 177 125 141 77 89 114 107 20 350 4 1 7 350 307 120 33 27 77 111 115 115 114 113 116 120 123 122 109 89 70 67 100 96 80 91 92 91 83 84 70 69 57 38 35 41 34 32 34 28 25 20 18 27 34 34 34 33 36 38 40 40 38 41 60 92 133 155 188 179 175 176 191 174 169 168 166 175 179 176 172 175 165
122 130 217 99 287 117 123 103 76 68 178 128 302 306 335 4 349 343 102 66 7 53 101 127 132 137 134 136 139 146 149 85 69 81 174 135 117 109 102 94 83 90 88 91 80 67 45 50 55 46 43 40 31 26 21 17 25 32 31 28 30 32 32 32 27 22 22 21 22 25 37 63 85 84 150 152 206 211 190 183 172 182 173 167 175 180
41 68 103 115 163 63 102 127 126 148 101 200 305 304 314 355 350 325 82 84 253 114 87 108 118 129 136 144 148 144 97 89 127 171 189 164 147 138 134 141 147 134 133 130 126 118 113 85 74 65 51 64 44 17 15 29 27 34 34 24 26 30 30 27 19 14 12 12 14 14 15 24 37 59 74 68 15 196 180 190 185 185 181 180 175 190
28 353 16 37 35 347 121 82 121 64 192 282 286 293 315 14 318 38 95 149 205 127 107 96 109 111 110 115 100 79 101 115 114 104 122 132 133 133 125 134 139 138 123 125 126 142 151 177 127 84 71 67 68 66 39 25 39 43 49 37 28 32 26 16 11 4 3 7 11 8 8 8 12 16 19 26 35 59 264 243 215 175 187 199 192 196
23 345 35 161 114 60 70 85 92 66 320 286 287 301 290 307 354 66 114 259 75 90 132 134 130 108 78 79 86 87 62 95 111 109 89 79 76 70 70 73 79 78 71 55 38 19 69 52 40 46 48 45 43 41 28 26 36 34 37 39 38 25 10 6 360 3 6 3 3 3 1 359 358 359 356 7 0 354 17 63 144 179 159 190 197 181
21 7 8 40 56 55 62 78 98 73 240 271 280 286 309 65 68 115 227 115 96 84 78 88 90 89 97 89 93 95 89 75 72 69 69 67 65 56 51 48 48 48 46 39 31 28 29 36 31 27 29 31 33 28 25 26 28 26 22 27 27 7 357 0 0 7 8 6 2 359 357 354 349 349 350 350 355 351 344 336 351 333 310 161 136 133
256 69 48 34 305 84 78 96 81 66 329 340 323 5 8 77 103 132 101 71 75 80 79 69 68 63 76 80 74 80 81 77 75 72 66 62 64 59 51 46 44 45 44 37 24 16 22 33 26 24 31 31 30 26 23 29 28 21 15 16 4 359 2 2 4 3 3 2 358 354 350 345 342 343 345 343 341 346 336 333 338 336 346 348 330 319
341 86 57 48 337 114 77 71 85 65 356 356 58 108 341 38 115 100 97 78 57 70 77 80 69 76 74 82 85 77 75 78 72 76 71 59 58 66 61 52 45 40 45 51 35 8 19 35 21 30 30 30 31 26 25 32 29 21 21 10 354 4 5 9 9 9 10 4 358 355 348 343 343 344 342 338 342 342 335 328 324 318 307 299 285 280
4 91 110 105 323 83 114 113 98 78 56 40 60 73 62 53 60 73 85 86 79 62 69 86 84 75 74 77 80 83 81 76 80 79 93 90 71 74 85 75 63 53 64 74 50 11 13 20 17 41 30 24 33 28 31 37 39 26 20 351 10 7 10 10 12 13 9 4 0 358 351 350 346 343 344 345 347 340 333 320 318 314 308 296 238 242
101 104 99 85 73 83 83 99 107 85 69 60 53 52 57 59 55 65 69 73 58 62 58 63 52 57 83 92 86 72 79 81 78 78 82 93 99 91 84 85 78 71 67 76 57 17 18 8 24 45 30 4 13 32 32 32 50 32 344 3 8 359 6 11 14 17 9 3 356 350 348 346 342 340 340 337 337 333 326 321 315 309 292 287 273 226
113 114 79 103 162 105 89 91 98 107 106 97 81 66 60 59 61 59 69 71 78 74 74 74 75 67 56 63 90 96 93 100 116 132 131 121 113 113 111 112 120 111 89 83 105 43 3 36 43 28 25 349 331 350 328 38 358 288 254 1 316 320 347 356 39 22 4 338 332 334 335 336 336 333 330 328 323 320 317 323 322 318 315 309 292 275
40 109 70 73 77 80 123 125 115 109 102 94 91 87 77 76 80 77 81 84 83 84 82 82 79 73 70 60 74 97 82 60 54 35 100 120 107 96 85 71 61 48 36 65 74 26 1 31 38 47 1 324 323 338 1 8 12 17 14 6 5 351 350 1 11 11 352 337 329 318 310 321 325 330 326 321 321 320 321 315 311 307 299 296 300 295
18 54 105 133 95 102 114 118 117 115 98 98 96 91 101 106 96 104 103 102 95 78 66 73 96 96 79 74 50 73 96 74 54 29 44 89 82 72 67 62 48 34 9 11 337 237 228 246 337 3 28 25 23 33 31 26 24 23 24 19 15 16 15 9 359 355 355 356 359 348 349 351 357 354 349 341 335 328 317 314 314 317 305 286 246 289
51 66 94 100 109 128 153 147 146 126 126 112 111 130 135 129 120 111 91 81 86 96 97 96 85 80 78 71 60 62 86 86 69 48 45 77 84 76 62 43 26 352 312 292 351 11 36 49 51 45 39 29 25 28 28 21 17 15 20 18 17 17 14 5 7 9 3 359 4 11 8 5 1 360 354 349 343 340 336 329 351 14 340 315 335 348
89 96 138 113 123 113 98 102 106 106 96 108 123 122 108 112 115 99 91 98 82 75 71 62 71 90 92 78 70 79 68 74 69 56 45 59 73 96 93 33 10 334 7 37 50 36 31 27 30 39 37 28 28 27 23 17 8 10 6 17 21 17 9 3 7 3 1 1 10 7 4 356 354 350 349 345 343 342 342 338 345 13 39 22 346 7